Location: Pella
(41.4080°N, 92.9160°W)
Time: 11:42:36
(UTC-05:00)

Daily predictions for brighter satellites

Satellite Brightness Start Highest point End
(mag) Time Altitude Azimuth Time Altitude Azimuth Time Altitude Azimuth
Cosmos 2242 Rocket 3.6 21:06:03 10° N 21:10:34 79° E 21:15:01 10° S
Timation 2 Rocket 4.1 21:11:04 10° NNW 21:17:20 69° ENE 21:23:51 10° SE
Cosmos 2082 Rocket 2.5 21:11:58 10° NNW 21:17:36 72° WSW 21:23:13 10° SSE
USA 238 DEB 4.1 21:13:01 10° SW 21:19:56 75° NW 21:26:58 10° NNE
USA 238 4.0 21:13:07 10° SW 21:20:02 76° NW 21:27:05 10° NNE
Resurs 01 Rocket 3.2 21:17:14 10° SSW 21:21:17 36° W 21:25:23 10° NNW
Cosmos 724 4.4 21:16:38 10° SSW 21:22:47 73° ESE 21:28:55 10° NE
Cosmos 1633 Rocket 4.3 21:19:25 10° SSW 21:23:38 46° WNW 21:27:54 10° N
In-Cosmos 22 Rocket 4.3 21:18:23 10° S 21:24:07 78° E 21:29:58 10° NNE
SAR-Lupe-4 4.0 21:22:28 10° SSE 21:25:54 46° ENE 21:29:20 10° N
ARGOS 4.2 21:21:17 10° SE 21:25:55 30° ENE 21:30:32 10° N
YAOGAN 6 2.6 21:23:35 10° SSE 21:27:16 72° ENE 21:30:59 10° N
ERS-1 Rocket 3.5 21:23:33 10° SE 21:28:19 45° ENE 21:33:07 10° N
Tiangong 2 1.3 21:29:53 10° W 21:33:05 69° N 21:36:17 10° E
Cosmos 1833 Rocket 3.4 21:29:49 10° NNW 21:35:18 53° WSW 21:40:45 10° S
OAO 2 Rocket 4.1 21:31:06 10° WSW 21:35:40 35° S 21:39:28 14° SE
Cosmos 1939 Rocket 3.5 21:31:42 10° S 21:35:48 60° W 21:39:54 10° NNW
Meteor 2-10 Rocket 4.1 21:30:42 10° NNW 21:36:30 73° W 21:42:16 10° S
GPS 2-04 Rocket1 3.7 21:35:21 10° SW 21:38:13 22° SSE 21:39:58 16° SE
NOSS 3-2 (A) 3.4 21:33:06 10° SSW 21:39:03 80° ESE 21:45:37 10° NE
Cosmos 1825 4.0 21:37:41 13° ESE 21:39:05 15° E 21:41:21 10° NE
Cosmos 1933 3.8 21:35:12 10° NNW 21:39:10 61° W 21:43:07 10° S
Cosmos 1933 Rocket 3.8 21:35:15 10° SSW 21:39:33 72° W 21:43:55 10° N
Cosmos 1816 Rocket 4.5 21:33:33 10° S 21:39:44 84° E 21:45:55 10° N
Cosmos 1862 Rocket 3.9 21:38:19 10° NNW 21:42:47 68° W 21:47:14 10° S
Milstar 3 4.4 21:34:45 10° SSW 21:42:47 22° SSE 21:47:21 14° SE
Cosmos 1892 2.6 21:41:51 10° S 21:45:42 79° E 21:49:33 10° N
SAR-Lupe-1 4.0 21:43:58 13° SSE 21:47:08 74° ENE 21:50:43 10° N
Envisat 4.3 21:44:47 10° SSW 21:49:29 38° W 21:54:13 10° NNW
Cosmos 1898 Rocket 4.0 21:44:59 10° SSW 21:50:13 65° WNW 21:55:32 10° NNE
Helios 1B rocket 2.9 21:47:05 10° N 21:51:09 64° WNW 21:55:12 10° SSW
USA 215 3.3 21:45:39 14° SE 21:51:27 87° SW 21:58:04 10° NW
Cosmos 1346 Rocket 2.7 21:48:18 10° N 21:52:15 80° E 21:55:38 14° SSE
Cosmos 1408 3.8 21:53:50 20° ESE 21:55:13 25° E 21:58:18 10° NE
NOSS 3-2 (C) 3.4 21:51:08 10° SSW 21:57:05 81° ESE 22:03:40 10° NE
Cosmos 1125 Rocket 4.4 21:57:28 17° SSE 22:00:34 30° E 22:05:03 10° NE
NOAA 11 4.2 21:57:30 12° SSE 22:02:36 89° WSW 22:08:07 10° NNW
Cosmos 2346 Rocket 4.5 21:56:40 10° S 22:02:42 84° W 22:08:47 10° N
Cosmos 990 Rocket 4.1 21:57:39 10° SSW 22:02:50 81° WNW 22:08:06 10° NNE
Lacrosse 4 Rocket 3.8 22:00:21 10° N 22:03:00 15° NE 22:05:39 10° E
COSMOS 2487 4.5 22:01:08 10° NW 22:04:05 25° W 22:07:00 10° SSW
CZ-4B DEB 4.3 22:05:32 10° SSW 22:08:09 29° W 22:10:48 10° NW
Cosmos 1943 Rocket 3.0 22:05:38 19° SSE 22:08:31 30° ESE 22:13:17 10° NE
MetOp-A 4.1 22:04:34 15° SSE 22:09:05 90° NE 22:14:28 10° NNW
H-2A R/B 2.6 22:05:53 20° SE 22:09:22 48° ENE 22:14:32 10° N
Cosmos 2369 Rocket 2.2 22:09:07 10° S 22:14:39 62° ESE 22:20:16 10° NNE
Cosmos 1340 3.7 22:13:26 10° NNE 22:16:48 29° ENE 22:17:47 26° ESE
Cosmos 1606 3.0 22:13:15 10° N 22:16:55 47° E 22:18:16 32° SE
Cosmos 1703 Rocket 3.7 22:14:47 10° NNW 22:19:13 73° W 22:22:20 19° S
DNEPR-1 R/B 4.4 22:17:24 18° S 22:20:41 35° ESE 22:24:53 10° NE
Okean 1-7 3.0 22:19:03 10° N 22:23:29 83° E 22:25:53 27° S
Cosmos 1782 2.8 22:19:31 10° N 22:23:31 67° E 22:25:10 33° SSE
Meteor 2-6 Rocket 4.4 22:19:30 10° N 22:25:24 66° ENE 22:28:54 25° SSE
CENTAUR R/B 2.7 22:20:15 10° S 22:25:51 45° ESE 22:32:11 10° NE
Shenzhou-11 Module 1.9 22:23:58 10° W 22:27:02 68° SSW 22:27:28 56° SE
OE (NEXTSAT) 4.5 22:29:18 10° WNW 22:32:48 60° SSW 22:33:27 49° SSE
Cosmos 1733 Rocket 3.7 22:34:59 32° ESE 22:35:35 34° E 22:39:30 10° NNE
Cosmos 2221 Rocket 3.8 22:31:28 10° NNW 22:35:53 70° W 22:38:18 26° S
IGS 5A 4.3 22:36:37 30° E 22:37:34 34° ENE 22:41:20 10° N
Cosmos 1869 Rocket 4.1 22:34:39 13° SSW 22:38:29 57° W 22:42:47 10° N
COSMOS 2455 2.9 22:32:55 10° SSW 22:38:57 83° WNW 22:45:00 10° NNE
Cosmos 1862 3.6 22:38:51 43° SE 22:39:30 48° E 22:43:20 10° NNE
Landsat 7 3.9 22:41:59 37° SE 22:43:46 66° ENE 22:48:29 10° N
DMSP B5D2-2 4.1 22:39:56 10° NNE 22:45:07 62° E 22:47:26 32° S
ATLAS 5 CENTAUR R/B 2.9 22:45:54 10° NNW 22:51:44 52° NE 22:54:47 29° ESE
Nimbus 7 Rocket 4.4 22:46:26 10° NNE 22:52:23 87° WNW 22:56:51 18° SSW
GEOS 3 Rocket 3.5 22:51:25 38° SSE 22:53:28 86° SW 22:58:44 10° NW
SPOT 5 3.7 22:51:10 23° SSW 22:54:23 52° W 22:59:37 10° NNW
BREEZE M DEB (TANK) 3.8 22:46:56 10° WSW 22:58:12 82° NNW 23:01:40 10° ENE
Terra 1.9 22:57:36 46° SE 22:58:52 65° ENE 23:03:36 10° N
Cosmos 1092 Rocket 4.3 22:57:54 36° SE 22:59:47 47° E 23:05:38 10° NNE
Cosmos 158 Rocket 3.7 22:57:05 10° NNW 23:02:01 85° WSW 23:03:23 48° SSE
Cosmos 1048 Rocket 4.0 22:57:40 10° NNW 23:03:02 87° WSW 23:04:45 44° SSE
Nadezhda 4 Rocket 3.9 23:01:48 34° S 23:04:39 74° E 23:10:50 10° N
ARGOS 4.4 23:02:34 18° SSW 23:06:02 35° W 23:10:57 10° NNW
CARTOSAT-1 3.5 23:05:23 59° SE 23:06:08 79° ENE 23:10:28 10° N
SPOT 1/Viking Rocket 4.1 23:04:50 29° SSW 23:07:15 52° W 23:12:19 10° NNW
CZ-4B R/B 4.2 23:04:31 10° NNE 23:08:53 33° E 23:08:53 33° E
Tiangong 2 2.7 23:06:53 10° W 23:08:44 29° W 23:08:44 29° W
Cosmos 1674 Rocket 3.5 23:07:24 10° N 23:11:43 62° E 23:12:01 60° ESE
H-2A ROCKET BODY 4.0 23:09:29 10° SW 23:37:05 - ESE 23:11:45 21° SSW
Cosmos 1825 3.8 23:12:32 21° SW 23:14:22 32° WNW 23:17:48 10° NNW
Intercosmos 25 Rocket 4.5 23:06:33 10° N 23:15:00 88° ENE 23:16:51 45° S
Cosmos 1378 Rocket 4.3 23:11:02 10° N 23:15:09 37° ENE 23:15:12 37° E
Cosmos 1656 Rocket 3.8 23:14:57 46° ESE 23:15:20 47° ESE 23:20:36 10° NE
BREEZE-M DEB (TANK) 3.8 23:11:41 10° WNW 23:15:35 82° NNE 23:27:59 17° ESE
CZ-4 R/B 3.9 23:14:02 10° NNE 23:18:35 53° E 23:18:37 53° ESE
Cosmos 2084 4.0 23:16:15 10° NW 23:19:48 41° WSW 23:19:48 41° WSW
Spot 4 4.1 23:19:26 49° ESE 23:20:07 53° ENE 23:24:50 10° N
Lacrosse 5 rocket 1.4 23:19:48 46° W 23:20:37 62° NW 23:24:17 10° NE
Cosmos 2227 Rocket 4.5 23:18:05 10° NNE 23:20:45 13° NE 23:23:26 10° ENE
Cosmos 2219 4.3 23:16:28 10° N 23:21:39 33° ENE 23:23:26 27° E
H-2A R/B 1.8 23:23:41 77° E 23:23:44 77° ENE 23:27:50 10° N
Cosmos 2344 3.5 23:16:35 10° SSW 23:24:13 85° SE 23:32:44 10° NE
Cosmos 1812 4.3 23:21:53 10° NNE 23:24:33 26° ENE 23:24:33 26° ENE
Cosmos 1269 Rocket 4.4 23:24:01 10° NNW 23:29:11 55° WSW 23:30:27 44° SSW
CZ-2C R/B 4.2 23:34:40 28° E 23:35:24 29° ENE 23:39:41 10° N
CZ-2C R/B 3.8 23:34:29 10° NE 23:38:07 26° E 23:38:07 26° E
Okean 2 Rocket 4.5 23:41:48 27° ENE 23:41:48 27° ENE 23:44:38 10° NNE
Lacrosse 4 Rocket 1.6 23:37:45 10° NNW 23:42:08 71° W 23:42:08 71° W
Cosmos 405 Rocket 4.2 23:39:31 10° N 23:41:53 27° NE 23:41:53 27° NE
Cosmos 1908 Rocket 3.5 23:44:18 82° NE 23:44:18 82° NE 23:48:37 10° N
Cosmos 1867 4.0 23:39:24 10° NNW 23:44:44 51° NE 23:45:47 45° E
Cosmos 1655 Rocket 4.2 23:47:23 49° ESE 23:48:09 52° E 23:54:09 10° NNE
H-2A R/B 4.0 23:46:33 17° SW 23:48:59 22° W 23:53:09 10° NW
Cosmos 1943 Rocket 3.4 23:47:03 11° SW 23:52:06 39° WNW 23:57:18 10° N
deb Chang Zheng 4 3.9 23:51:05 10° N 23:55:28 61° WNW 23:55:45 59° W
ATLAS CENTAUR R/B 3.8 23:58:54 13° NE 23:58:54 13° NE 23:59:26 10° NE
